{"data":{"norad_id":57059,"epoch":"2026-09-20T21:58:00.102144Z","epoch_age_seconds":85051,"freshness":"FRESH","line1":"1 57059U 23088M   26263.91527896  .00000383  00000+0  23440-4 0  9993","line2":"2 57059  43.0017  87.7797 0001787 273.3022  86.7625 15.27576066180198","mean_motion":15.27576066,"eccentricity":0.0001787,"inclination_deg":43.0017,"raan_deg":87.7797,"arg_perigee_deg":273.3022,"mean_anomaly_deg":86.7625,"bstar":2.344e-5,"rev_number":18019,"period_min":94.266991480868,"perigee_km":481.83477981576,"apogee_km":484.2869719366,"semimajor_km":6861.1978758762,"source":"CELESTRAK","updated_at":"2026-09-21T09:00:33.550060Z"}}